Flag for Germany Weather past 2 weeks in Hürth, North Rhine-Westphalia, Germany

50 °F

Drizzle. Fog.

Feels Like: 46 °F
Forecast: 46 / 53 °F
Wind: 10 mph from West

Location: Noervenich

Current Time: Dec 1, 2015 at 5:52:29 AM

Latest Report: Dec 1, 2015 at 4:20 AM

Visibility: 2 mi

Pressure: 30.09 "Hg

Humidity: 100%

Dew point: 50 °F

Location of HürthLocation

Historic Weather in Hürth — Graph


Hürth temperature yesterday

Maximum temperature yesterday: 52 °F (at 12:20 AM)
Minimum temperature yesterday: 46 °F (at 1:20 AM)
Average temperature yesterday: 50 °F

Past Weeks' High & Low Weather Summary

High63 °F (Nov 17, 9:20 PM)100% (Nov 19, 5:20 PM)30.27 "Hg (Nov 19, 5:20 PM)
Low30 °F (Nov 27, 5:20 AM)57% (Nov 27, 2:20 PM)29.39 "Hg (Nov 21, 12:20 PM)
Average45 °F82%29.87 "Hg
* Reported Nov 16 4:20 AM — Dec 1 4:20 AM, Hürth, Weather by CustomWeather, © 2015

Note: Actual official high and low records may vary slightly from our data, if they occured in-between our weather recording intervals... More about our weather records


Hürth weather history for previous 24 hours

Time TempWeatherWind HumidityBarometerVisibility
4:20 AM
Tue, Dec 1
50 °FDrizzle. Fog.10 mph100%30.09 "Hg2 mi
3:20 AM54 °FLight rain. Passing clouds.17 mph88%30.07 "HgN/A
2:20 AM54 °FPassing clouds.18 mph88%30.01 "HgN/A
1:20 AM52 °FLight rain. Passing clouds.22 mph88%30.01 "HgN/A
12:20 AM52 °FLight rain. Passing clouds.23 mph88%29.95 "HgN/A
11:20 PM
Mon, Nov 30
52 °FLight rain. Mostly cloudy.25 mph88%29.95 "HgN/A
10:46 PM52 °FLight rain. Passing clouds.26 mph88%29.95 "HgN/A
10:20 PM52 °FLight rain. Overcast.26 mph88%29.95 "HgN/A
9:20 PM52 °FLight rain. Passing clouds.30 mph82%29.89 "HgN/A
8:20 PM52 °FLight rain. Partly cloudy.29 mph82%29.89 "HgN/A
7:20 PM50 °FRain. Partly cloudy.24 mph88%29.89 "HgN/A
6:20 PM52 °FLight rain. Partly cloudy.25 mph77%29.89 "HgN/A
6:01 PM52 °FLight rain. Overcast.26 mph77%29.89 "HgN/A
5:20 PM52 °FPassing clouds.22 mph77%29.89 "HgN/A
5:02 PM52 °FPassing clouds.22 mph77%29.92 "HgN/A
4:20 PM52 °FPartly sunny.21 mph77%29.95 "HgN/A
3:20 PM52 °FLight rain. Partly sunny.18 mph82%29.98 "HgN/A
2:20 PM50 °FLight rain. Partly sunny.16 mph88%29.98 "HgN/A
1:20 PM52 °FLight rain. Partly sunny.14 mph82%30.01 "HgN/A
12:20 PM48 °FRain. Partly sunny.2 mph94%30.04 "HgN/A
11:20 AM48 °FRain. Broken clouds.6 mph87%30.09 "Hg6 mi
10:20 AM46 °FLight rain. Broken clouds.3 mph93%30.09 "HgN/A
9:20 AM46 °FLight rain. Broken clouds.8 mph82%30.12 "Hg6 mi
8:20 AM46 °FBroken clouds.8 mph82%30.09 "HgN/A
7:20 AM46 °FPartly cloudy.10 mph82%30.09 "HgN/A
6:20 AM46 °FPartly cloudy.10 mph76%30.07 "HgN/A
5:20 AM48 °FPassing clouds.10 mph76%30.04 "HgN/A
Weather by CustomWeather, © 2015

See weather overviewHow to use our weather pages